Погода в Пежме

Россия / Вологодская область     60°51′11″N   41°43′54″E
темп.,
°C
ветер,
м/с
пор.,
м/с
влажн.,
%
обл.,
%
осадки,
мм/ч
давл.,
гПа
погр.,
м
6 мая, чт
чт600:00−3з22969 0.0 100729
03:00−3юз22966 0.0 100939
06:000ю13879 0.0 1009139
09:00+5ююв346678 0.0 1008840
12:00+9ююв3559100 0.0 10071245
15:00+10юв41069100 0.0 10041131
18:00+11ююв51182100 0.2 10011030
21:00+10ю6148789 1.1 999808
7 мая, пт
пт700:00+9ю61390100 0.1 9991154
03:00+6юз5119199 0.4 10011023
06:00+6ююз51090100 0.1 1003882
09:00+6ююз41084100 0.1 10051125
12:00+9ююз5965100 0.1 10051634
15:00+9юз596717 0.8 10071413
18:00+8юз41069100 0.8 10081350
21:00+5ююз3108816 0.9 1010340
8 мая, сб
сб800:00+3ю29965 0.0 1011201
03:00+2ю299636 0.0 1012207
06:00+5ююв2890100 0.0 1012235
09:00+8ююв41076100 0.1 10111097
12:00+11ююв51456100 0.1 10091878
15:00+14ююв61348100 0.1 10072175
18:00+10ююв51574100 0.4 10061599
21:00+8юв51688100 1.5 10031290
9 мая, вс
вс900:00+8юв51394100 2.3 999996
03:00+9ююв31098100 5.2 996672
06:00+6ююз61289100 1.1 9981132
09:00+4ю71587100 1.4 10001281
12:00+3юз71495100 0.1 10031073
15:00+4зюз61392100 0.3 10101163
18:00+7зюз41069100 0.1 10151512
21:00+4юз3107917 0.1 1019387
10 мая, пн
пн1000:00+2зюз311920 0.0 1021287
03:00+1юз28924 0.0 1023141
06:00+4ююз4137018 0.0 1024471
09:00+10юз5115295 0.0 10241450
12:00+12юз61045100 0.0 10232414
15:00+13юз5104493 0.0 10232173
18:00+11юз51063100 0.0 10241493
21:00+9юз41071100 0.0 1024861